Hourly Weather Kladno

Today, 27 July, Tuesday

Time Temperature Precipitation Wind Pressure Humidity
00:00 +18°C° 0 mm 1 mps 727 mmHg 93%
01:00 +18°C° 0 mm 1 mps 727 mmHg 92%
02:00 +18°C° 0 mm 1 mps 727 mmHg 92%
03:00 +18°C° 0 mm 1 mps 727 mmHg 92%
04:00 +17°C° 0 mm 2 mps 727 mmHg 92%
05:00 +18°C° 0 mm 2 mps 728 mmHg 88%
06:00 +19°C° 0 mm 2 mps 728 mmHg 84%
07:00 +20°C° 0 mm 2 mps 728 mmHg 79%
08:00 +21°C° 0 mm 3 mps 728 mmHg 72%
09:00 +24°C° 0 mm 3 mps 729 mmHg 64%
10:00 +25°C° 0 mm 3 mps 729 mmHg 56%
11:00 +26°C° 0 mm 3 mps 729 mmHg 52%
12:00 +27°C° 0 mm 3 mps 728 mmHg 49%
13:00 +28°C° 0 mm 4 mps 728 mmHg 45%
14:00 +28°C° 0 mm 3 mps 728 mmHg 45%
15:00 +28°C° 0 mm 3 mps 728 mmHg 46%
16:00 +28°C° 0 mm 3 mps 728 mmHg 46%
17:00 +27°C° 0.1 mm 2 mps 728 mmHg 53%
18:00 +26°C° 0.1 mm 1 mps 727 mmHg 59%
19:00 +25°C° 0.1 mm 1 mps 727 mmHg 65%
20:00 +23°C° 0.7 mm 1 mps 727 mmHg 70%
21:00 +22°C° 0.7 mm 1 mps 727 mmHg 74%
22:00 +21°C° 0.7 mm 1 mps 727 mmHg 79%
23:00 +21°C° 0.3 mm 1 mps 727 mmHg 79%

Tomorrow, 28 July, Wednesday

Time Temperature Precipitation Wind Pressure Humidity
00:00 +21°C° 0.3 mm 1 mps 727 mmHg 80%
01:00 +20°C° 0.3 mm 1 mps 727 mmHg 81%
02:00 +20°C° 0.1 mm 1 mps 727 mmHg 81%
03:00 +20°C° 0.1 mm 1 mps 727 mmHg 82%
04:00 +20°C° 0.1 mm 1 mps 727 mmHg 82%
05:00 +20°C° 0 mm 1 mps 727 mmHg 81%
06:00 +20°C° 0 mm 2 mps 728 mmHg 79%
07:00 +20°C° 0 mm 2 mps 728 mmHg 78%
08:00 +21°C° 0 mm 3 mps 728 mmHg 74%
09:00 +22°C° 0 mm 4 mps 728 mmHg 69%
10:00 +23°C° 0 mm 5 mps 728 mmHg 65%
11:00 +22°C° 0 mm 5 mps 728 mmHg 68%
12:00 +21°C° 0 mm 5 mps 729 mmHg 71%
13:00 +20°C° 0 mm 5 mps 729 mmHg 74%
14:00 +20°C° 0.1 mm 5 mps 729 mmHg 73%
15:00 +21°C° 0.1 mm 4 mps 728 mmHg 72%
16:00 +21°C° 0.1 mm 4 mps 728 mmHg 72%
17:00 +21°C° 0 mm 4 mps 728 mmHg 73%
18:00 +20°C° 0 mm 4 mps 728 mmHg 74%
19:00 +20°C° 0 mm 4 mps 728 mmHg 75%
20:00 +19°C° 0 mm 3 mps 728 mmHg 78%
21:00 +18°C° 0 mm 3 mps 728 mmHg 82%
22:00 +17°C° 0 mm 3 mps 728 mmHg 85%
23:00 +16°C° 0 mm 2 mps 728 mmHg 86%

Day after tomorrow, 29 July, Thursday

Time Temperature Precipitation Wind Pressure Humidity
00:00 +16°C° 0 mm 2 mps 728 mmHg 88%
01:00 +15°C° 0 mm 2 mps 728 mmHg 89%
02:00 +15°C° 0 mm 2 mps 728 mmHg 89%
03:00 +15°C° 0 mm 2 mps 728 mmHg 90%
04:00 +14°C° 0 mm 2 mps 728 mmHg 90%
05:00 +16°C° 0 mm 2 mps 728 mmHg 85%
06:00 +17°C° 0 mm 2 mps 728 mmHg 80%
07:00 +18°C° 0 mm 2 mps 728 mmHg 75%
08:00 +20°C° 0 mm 3 mps 728 mmHg 68%
09:00 +22°C° 0 mm 3 mps 728 mmHg 62%
10:00 +25°C° 0 mm 3 mps 728 mmHg 55%
11:00 +26°C° 0 mm 4 mps 728 mmHg 52%
12:00 +27°C° 0 mm 4 mps 728 mmHg 50%
13:00 +28°C° 0 mm 5 mps 728 mmHg 47%
14:00 +27°C° 0 mm 5 mps 727 mmHg 49%
15:00 +27°C° 0 mm 5 mps 727 mmHg 51%
16:00 +27°C° 0 mm 5 mps 727 mmHg 53%
17:00 +26°C° 0 mm 4 mps 727 mmHg 58%
18:00 +25°C° 0 mm 3 mps 726 mmHg 62%
19:00 +24°C° 0 mm 2 mps 726 mmHg 66%
20:00 +21°C° 0 mm 2 mps 726 mmHg 69%
21:00 +20°C° 0 mm 2 mps 726 mmHg 72%
22:00 +20°C° 0 mm 1 mps 726 mmHg 74%
23:00 +19°C° 0 mm 2 mps 726 mmHg 77%

30 July, Friday

Time Temperature Precipitation Wind Pressure Humidity
00:00 +18°C° 0 mm 2 mps 726 mmHg 79%
01:00 +17°C° 0 mm 2 mps 726 mmHg 82%
02:00 +17°C° 0 mm 2 mps 726 mmHg 81%
03:00 +17°C° 0 mm 2 mps 726 mmHg 80%
04:00 +17°C° 0 mm 2 mps 726 mmHg 79%
05:00 +18°C° 0 mm 2 mps 726 mmHg 76%
06:00 +18°C° 0 mm 2 mps 726 mmHg 72%
07:00 +18°C° 0 mm 3 mps 726 mmHg 69%
08:00 +20°C° 0 mm 3 mps 726 mmHg 63%
09:00 +21°C° 0 mm 4 mps 726 mmHg 56%
10:00 +22°C° 0 mm 4 mps 726 mmHg 50%
11:00 +23°C° 0 mm 5 mps 726 mmHg 46%
12:00 +25°C° 0 mm 5 mps 726 mmHg 43%
13:00 +26°C° 0 mm 5 mps 725 mmHg 40%
14:00 +27°C° 0 mm 5 mps 725 mmHg 39%
15:00 +27°C° 0 mm 5 mps 725 mmHg 39%
16:00 +27°C° 0 mm 4 mps 725 mmHg 39%
17:00 +25°C° 0 mm 4 mps 725 mmHg 46%
18:00 +24°C° 0 mm 3 mps 725 mmHg 52%
19:00 +23°C° 0 mm 2 mps 724 mmHg 59%
20:00 +20°C° 0 mm 2 mps 725 mmHg 62%
21:00 +19°C° 0 mm 2 mps 725 mmHg 66%
22:00 +18°C° 0 mm 2 mps 725 mmHg 69%
23:00 +17°C° 0 mm 2 mps 725 mmHg 72%

31 July, Saturday

Time Temperature Precipitation Wind Pressure Humidity
00:00 +16°C° 0 mm 2 mps 725 mmHg 76%
01:00 +16°C° 0 mm 2 mps 725 mmHg 79%
02:00 +15°C° 0 mm 2 mps 725 mmHg 81%
03:00 +15°C° 0 mm 2 mps 725 mmHg 83%
04:00 +14°C° 0 mm 1 mps 725 mmHg 86%
05:00 +15°C° 0 mm 1 mps 725 mmHg 80%
06:00 +16°C° 0 mm 1 mps 725 mmHg 75%
07:00 +19°C° 0 mm 1 mps 726 mmHg 69%
08:00 +19°C° 0 mm 2 mps 726 mmHg 63%
09:00 +21°C° 0 mm 3 mps 725 mmHg 58%
10:00 +22°C° 0 mm 4 mps 725 mmHg 52%
11:00 +23°C° 0 mm 4 mps 725 mmHg 52%
12:00 +23°C° 0 mm 4 mps 725 mmHg 52%
13:00 +23°C° 0 mm 4 mps 725 mmHg 53%
14:00 +23°C° 0 mm 4 mps 725 mmHg 52%
15:00 +23°C° 0 mm 4 mps 725 mmHg 51%
16:00 +23°C° 0 mm 4 mps 725 mmHg 50%
17:00 +22°C° 0 mm 4 mps 725 mmHg 55%
18:00 +21°C° 0 mm 3 mps 725 mmHg 60%
19:00 +20°C° 0 mm 3 mps 725 mmHg 65%
20:00 +20°C° 0 mm 3 mps 725 mmHg 67%
21:00 +19°C° 0 mm 3 mps 725 mmHg 69%
22:00 +18°C° 0 mm 3 mps 725 mmHg 72%
23:00 +17°C° 0 mm 3 mps 725 mmHg 77%

1 August, Sunday

Time Temperature Precipitation Wind Pressure Humidity
00:00 +16°C° 0 mm 3 mps 725 mmHg 82%
01:00 +15°C° 0 mm 2 mps 725 mmHg 87%
02:00 +14°C° 0 mm 2 mps 725 mmHg 89%
03:00 +14°C° 0 mm 2 mps 725 mmHg 91%
04:00 +13°C° 0 mm 2 mps 725 mmHg 93%
05:00 +14°C° 0 mm 2 mps 725 mmHg 88%
06:00 +15°C° 0 mm 2 mps 725 mmHg 83%
07:00 +16°C° 0 mm 2 mps 726 mmHg 78%
08:00 +17°C° 0 mm 2 mps 726 mmHg 72%
09:00 +19°C° 0 mm 2 mps 726 mmHg 66%
10:00 +20°C° 0 mm 2 mps 726 mmHg 60%
11:00 +20°C° 0 mm 2 mps 725 mmHg 57%
12:00 +21°C° 0 mm 2 mps 725 mmHg 54%
13:00 +23°C° 0 mm 2 mps 725 mmHg 51%
14:00 +23°C° 0 mm 2 mps 725 mmHg 51%
15:00 +23°C° 0 mm 2 mps 725 mmHg 51%
16:00 +23°C° 0 mm 2 mps 724 mmHg 51%
17:00 +21°C° 0.1 mm 2 mps 724 mmHg 58%
18:00 +20°C° 0.1 mm 2 mps 724 mmHg 64%
19:00 +18°C° 0.1 mm 2 mps 724 mmHg 71%
20:00 +17°C° 0.1 mm 2 mps 725 mmHg 75%
21:00 +16°C° 0.1 mm 2 mps 725 mmHg 79%
22:00 +15°C° 0.1 mm 2 mps 725 mmHg 84%
23:00 +15°C° 0 mm 2 mps 725 mmHg 85%
Show more